Home > Weather > Kings County > Past weeks

Flag for Canada Past Weather in Kings County, Nova Scotia, Canada — Yesterday and Last 2 Weeks

Now
69 °F

Mild.


Feels Like: 69 °F
Forecast: N/A
Wind: 10 mph from Northwest

Location: Kentville

Current Time: Aug 29, 2016 at 8:35:25 PM

Latest Report: Aug 29, 2016 at 8:00 PM


Visibility: N/A

Pressure: 29.88 "Hg

Humidity: 64%

Dew Point: 56 °F

Location of Kings CountyLocation

Past Weather in Kings County — Graph

°F

Kings County Temperature Yesterday

Maximum temperature yesterday: 73 °F (at 3:00 PM)
Minimum temperature yesterday: 51 °F (at 7:00 AM)
Average temperature yesterday: 63 °F

High & Low Weather Summary for the Past Weeks

 TemperatureHumidityPressure
High83 °F (Aug 25, 5:00 PM)97% (Aug 15, 4:00 AM)30.35 "Hg (Aug 15, 4:00 AM)
Low51 °F (Aug 28, 7:00 AM)37% (Aug 16, 4:00 PM)29.70 "Hg (Aug 17, 2:00 PM)
Average67 °F76%30.01 "Hg
* Reported Aug 14 7:00 PM — Aug 29 7:00 PM, Kings County, Weather by CustomWeather, © 2016

Note: Actual official high and low records may vary slightly from our data, if they occured in-between our weather recording intervals... More about our weather records

Advertising

Kings County Weather History for the Previous 24 Hours

Scroll right to see more
 ConditionsComfort  
Time TempWeatherWind HumidityBarometerVisibility
7:00 PM
Mon, Aug 29
72 °FMild.9 mph63%29.85 "HgN/A
5:00 PM76 °FMild.16 mph59%29.82 "HgN/A
4:00 PM77 °FWarm.8 mph62%29.82 "HgN/A
3:00 PM75 °FMild.8 mph66%29.84 "HgN/A
2:00 PM72 °FMild.12 mph66%29.86 "HgN/A
1:00 PM72 °FMild.8 mph68%29.87 "HgN/A
12:00 PM72 °FMild.13 mph67%29.89 "HgN/A
11:00 AM69 °FMild.8 mph73%29.93 "HgN/A
10:00 AM67 °FMild.8 mph74%29.96 "HgN/A
9:00 AM65 °FMild.8 mph77%29.98 "HgN/A
8:00 AM64 °FMild.8 mph79%30.00 "HgN/A
7:00 AM63 °FMild.7 mph83%30.03 "HgN/A
6:00 AM63 °FMild.7 mph78%30.06 "HgN/A
5:00 AM64 °FMild.6 mph81%30.08 "HgN/A
4:00 AM63 °FMild.3 mph81%30.10 "HgN/A
3:00 AM63 °FMild.3 mph83%30.11 "HgN/A
2:00 AM63 °FMild.3 mph84%30.13 "HgN/A
1:00 AM63 °FMild.5 mph83%30.16 "HgN/A
12:00 AM62 °FCool.8 mph87%30.16 "HgN/A
11:00 PM
Sun, Aug 28
64 °FMild.6 mph79%30.19 "HgN/A
10:00 PM65 °FMild.5 mph75%30.21 "HgN/A
9:00 PM66 °FMild.5 mph59%30.21 "HgN/A
Weather by CustomWeather, © 2016

See weather overviewHow to use our weather pages